Miscellaneous Local Product
Issued by NWS North Platte, NE

Home | Current Version | Previous Version | Text Only | Print | Product List | Glossary On
Versions: 1 2 3 4 5 6 7 8 9 10 11 12 13 14 15 16 17 18 19 20 21 22 23 24 25 26 27 28 29 30 31 32 33 34 35 36 37 38 39 40 41 42 43 44 45 46 47 48 49 50
000
AXUS43 KLBF 252110
MISLBF


WESTERN AND NORTH CENTRAL NEBRASKA HOURLY WEATHER ROUNDUP
NATIONAL WEATHER SERVICE NORTH PLATTE NE
400 PM CDT MON AUG 25 2014

***STATIONS NOT REPORTING VARIABLES SUCH AS SKY/WEATHER OR
PRESSURE ARE PROVIDED BY THE NEBRASKA DEPARTMENT OF
ROADS...RAWS...AND APRS NETWORKS...AND ARE NOT UNDER
NATIONAL WEATHER SERVICE QUALITY CONTROL***

...OBSERVATIONS IN AND NEAR THE EASTERN PANHANDLE OF NEBRASKA...

CITY           SKY/WX    TMP DP  RH WIND       PRES   REMARKS
PINE RIDGE     MOSUNNY   73  47  39 W6        30.12F
CHADRON        SUNNY     76  42  29 VRB7      30.11F
ALLIANCE       MOSUNNY   73  46  38 CALM      30.14F
SIDNEY         SUNNY     77  50  38 NE3       30.15F
WHITECLAY        N/A     73  46  37 CALM        N/A
RUSHVILLE        N/A     75  40  27 S8          N/A
GORDON           N/A     74  47  37 NW8         N/A
CRESCENT LAKE    N/A     77  53  42 N5          N/A
LISCO            N/A     81  48  32 SW7         N/A
BIG SPRINGS      N/A     75  59  58 CALM        N/A
$$

...OBSERVATIONS IN NORTH CENTRAL NEBRASKA...

CITY           SKY/WX    TMP DP  RH WIND       PRES   REMARKS
VALENTINE      SUNNY     74  50  42 VRB3      30.11F
THEDFORD       SUNNY     78  54  42 N3        30.11S
AINSWORTH      SUNNY     72  52  49 N6        30.11S
O`NEILL        SUNNY     74  55  51 N6        30.10R
ORD            SUNNY     77  55  46 N7        30.07F
BROKEN BOW     SUNNY     78  53  41 E6        30.09S
BROWNLEE         N/A     79  49  34 W6          N/A
SPRINGVIEW       N/A     75  53  45 CALM        N/A
ROSE             N/A     79  57  47 SE3         N/A
NEWPORT          N/A     76  53  45 W8          N/A
SARGENT          N/A     76  53  44 E3          N/A
COMSTOCK         N/A     78  58  49 E7          N/A
CHAMBERS         N/A     76  52  43 E3          N/A
EWING            N/A     74  59  58 CALM        N/A
$$

...OBSERVATIONS IN SOUTHWEST NEBRASKA AND FAR NORTHEAST COLORADO...

CITY           SKY/WX    TMP DP  RH WIND       PRES   REMARKS
WRAY             N/A     83  54  36 E3        30.10F
IMPERIAL       SUNNY     80  54  40 SE9       30.09F
OGALLALA       SUNNY     77  54  43 CALM      30.09F
NORTH PLATTE   SUNNY     79  55  43 NE9       30.09S
MCCOOK         SUNNY     80  62  54 E14       30.06F
LEXINGTON      SUNNY     76  58  54 E8        30.08F
PAXTON           N/A     79  56  45 CALM        N/A
SUTHERLAND       N/A     81  56  41 E8          N/A
BRADY            N/A     76  58  52 CALM        N/A
GOTHENBURG       N/A     76  51  41 E6          N/A
CALLAWAY         N/A     75  59  57 E6          N/A
$$

...SOME WEATHER OBSERVATIONS FROM AROUND THE REGION...

CITY           SKY/WX    TMP DP  RH WIND       PRES   REMARKS
DENVER         PTSUNNY   76  53  44 E12       30.14F
LARAMIE        TSTM      59  48  67 S9        30.22R
CHEYENNE       MOSUNNY   69  48  47 S15G26    30.19F
SCOTTSBLUFF    SUNNY     75  47  36 VRB7      30.13F
RAPID CITY     MOSUNNY   70  47  43 VRB6      30.13F
PIERRE         MOSUNNY   68  49  50 W15G24    30.06S
WINNER         FAIR      75  48  38 NW15      30.08F
SIOUX FALLS    MOSUNNY   73  56  54 NW9       30.04S
OMAHA          MOSUNNY   80  61  52 MISG        N/A
GRAND ISLAND   SUNNY     72  58  61 E12       30.09F
KANSAS CITY    MOSUNNY   94  72  48 S6        29.97F HX 102
WICHITA        MOSUNNY   97  64  33 E10       29.92F HX  99
HAYS           SUNNY     97  63  32 SE15G24   29.95F HX  98
LIBERAL        MOSUNNY   99  54  22 S14G24    29.94F HX  96
GOODLAND       MOSUNNY   83  59  44 E14G23    30.08F
$$



USA.gov is the U.S. government's official web portal to all federal, state and local government web resources and services.